Voltar ao catálogo

TIANMU-1 22

AtivoMeteoSSO
NORAD 58663·PAYLOAD·🇨🇳 China

Lançado Dec 27, 2023 de Jiuquan Satellite Launch Center

Loading…

Próximas Passagens (próximas 24 horas)

TLE

AtualizadoSource: Space-Track

Época: Sep 14, 2026, 13:51 UTC

1 58663U 23208D   26257.57768341  .00006345  00000-0  20676-3 0  9998
2 58663  97.4575  14.3033 0004274  41.6974 318.4592 15.32175640151013

Acompanhe TIANMU-1 22 em tempo real com AllMySat

Download on the App Store